Lexington Weather

Lexington, Massachusetts, USA

29°F
4/1/2020 4:44am 
  • Lexington Conditions: Clear
  • Temperature: 29.3°F / -1.5°C 
  • Dew Point: 27.5°FIncreased 0.2°Fsince last hour.
  • Relative Humidity: 93%Increased 1.0% since last hour.
  • Wind: Calm, 10-min avg: Calm, gust: 1 mph
  • Barometer: 29.87 in Steady
  • Visibility: 10 miles
  • Snow Today: 0.0 in
  •   

Regional Weather Roundup
for Boston / Norton, MA

        
000
ASUS41 KBOX 291204
RWRBOX

REGIONAL WEATHER ROUNDUP
NATIONAL WEATHER SERVICE BOSTON/NORTON MA
800 AM EDT SUN MAR 29 2020

NOTE:  "FAIR" INDICATES FEW OR NO CLOUDS BELOW 12,000 FEET WITH NO 
SIGNIFICANT WEATHER AND/OR OBSTRUCTIONS TO VISIBILITY.

MAZALL-291300-
EASTERN MASSACHUSETTS
  
CITY           SKY/WX    TMP DP  RH WIND       PRES   REMARKS
BOSTON         NOT AVBL                                               
BEVERLY        CLOUDY    44  41  89 SE10      30.19R FOG              
LAWRENCE       CLOUDY    43  42  97 E8        30.19S FOG              
BEDFORD        LGT RAIN  44  41  89 E12       30.15F FOG              
BLUE HILL        N/A     42  41  96 E20G25    30.13S                  
NORWOOD        CLOUDY    46  42  86 E9G16     30.16S FOG              
MARSHFIELD     FOG       45  45 100 SE9G17    30.18S VSB 1            
PLYMOUTH       LGT RAIN  44  42  93 E12       30.18R FOG              
TAUNTON        LGT RAIN  45  42  89 E9        30.15R FOG              
NEW BEDFORD    CLOUDY    44  44 100 E13G22    30.14S FOG              
$$

MAZALL-291300-
CAPE COD AND THE ISLANDS
  
CITY           SKY/WX    TMP DP  RH WIND       PRES   REMARKS
FALMOUTH       CLOUDY    43  43 100 E16G22    30.16R FOG              
HYANNIS        CLOUDY    45  42  89 E8G23     30.15R FOG              
CHATHAM        CLOUDY    43  40  89 E12G20    30.19R FOG              
PROVINCETOWN   CLOUDY    44  41  89 SE12      30.18S                  
NANTUCKET      LGT RAIN  45  42  89 E21       30.15R                  
MARTHAS VNYRD  LGT RAIN  46  44  93 E17G25    30.13R FOG              
$$
 
MAZALL-291300-
CENTRAL AND WESTERN MASSACHUSETTS
  
CITY           SKY/WX    TMP DP  RH WIND       PRES   REMARKS
WORCESTER      LGT RAIN  42  40  92 E12G20    30.11F VSB 1/4          
6HR MIN TEMP:  41; 6HR MAX TEMP:  42; 6HR PCP:  0.19;                

FITCHBURG      CLOUDY    43  40  89 E7        30.16F FOG              
ORANGE         CLOUDY    45  41  86 E7        30.12S                  
SPRINGFIELD    CLOUDY    45  44  99 CALM      30.11R                  
WESTFIELD      LGT RAIN  44  42  93 N6        30.11R FOG              
NORTH ADAMS    LGT RAIN  44  40  85 E18G25    30.06S FOG              
PITTSFIELD     CLOUDY    43  39  86 NE6       30.05R                  
$$
 
RIZALL-291300-
RHODE ISLAND
  
CITY           SKY/WX    TMP DP  RH WIND       PRES   REMARKS
PROVIDENCE     LGT RAIN  46  44  93 E14       30.15S FOG              
6HR MIN TEMP:  44; 6HR MAX TEMP:  46; 6HR PCP:  0.28;                

NEWPORT        LGT RAIN  46  43  89 E16G26    30.11F FOG              
BLOCK ISLAND   CLOUDY    44  43  96 E17G29    30.09S                  
SMITHFIELD     LGT RAIN  43  43 100 SE12      30.13F                  
WESTERLY       LGT RAIN  49  43  80 E18G29    30.10S                  
$$
 
CTZALL-291300-
CONNECTICUT
  
CITY           SKY/WX    TMP DP  RH WIND       PRES   REMARKS
BRADLEY INTL   LGT RAIN  44  43  96 N5        30.11R                  
6HR MIN TEMP:  42; 6HR MAX TEMP:  44; 6HR PCP:  0.17;                

HARTFORD       CLOUDY    46  44  93 N5        30.11R FOG              
BRIDGEPORT     LGT RAIN  46  44  93 E22G30    30.05F FOG              
DANBURY        LGT RAIN  44  43  96 E8        30.05R FOG              
GROTON         LGT RAIN  46  45  96 E24G32    30.07S FOG              
NEW HAVEN      CLOUDY    49  46  90 E18G28    30.07R FOG              
CHESTER        LGT RAIN  46  46 100 E13G23    30.08R VSB 1            
MERIDEN        LGT RAIN  45  44  97 CALM      30.08S FOG              
WILLIMANTIC    CLOUDY    46  43  89 VRB7      30.11R                  
OXFORD         LGT RAIN  43  43 100 E9        30.06R VSB 1            
$$

MEZ002-015-021-024-NHZ003-005-008-011-012-014-VTZ005-008-291300-
NORTHERN NEW ENGLAND
  
CITY           SKY/WX    TMP DP  RH WIND       PRES   REMARKS
PORTLAND ME    CLOUDY    44  39  82 E3        30.23R                  
6HR MIN TEMP:  42; 6HR MAX TEMP:  44;                                

BANGOR ME      CLOUDY    40  29  64 CALM      30.26R                  
CONCORD NH     CLOUDY    41  39  93 E3        30.19R FOG              
MANCHESTER NH  LGT RAIN  43  41  93 E5        30.17S FOG              
NASHUA NH      LGT RAIN  43  43 100 E8        30.18S FOG              
PORTSMOUTH NH  CLOUDY    42  41  97 NE3       30.19S                  
JAFFREY NH     CLOUDY    42  41  96 VRB3      30.13S FOG              
KEENE NH       LGT RAIN  44  41  89 VRB5      30.13S                  
BURLINGTON VT  CLOUDY    47  37  68 S5        30.07R                  
MT. WASHINGTON NOT AVBL                                               
$$

NYZ052-076-291300-
EASTERN NEW YORK
  
CITY           SKY/WX    TMP DP  RH WIND       PRES   REMARKS
ALBANY         LGT RAIN  43  40  89 CALM      30.05R FOG              
6HR MIN TEMP:  43; 6HR MAX TEMP:  43; 6HR PCP:  0.29;                

NEW YORK CITY  DRIZZLE   45  43  93 NE16      30.01R FOG              
6HR MIN TEMP:  45; 6HR MAX TEMP:  45; 6HR PCP: TRACE;                

$$
 
ANZALL-291300-
MARINE OBSERVATIONS
  
STATION/POSITION TIME  TEMP    WIND        PRES    VSBY  WAVE
                       AIR SEA DIR/SP/G                  HT/PER
                 (UTC) (F)     (DEG/KT/KT) (MB)    (MI)  (FT/S)
BOSTON BUOY      1150   43 43  120/ 14/ 16 1021.6R         2/ 4
BUZZARDS BAY     1100           90/ 25/ 28 1020.2R
NANTUCKET SOUND  1140                        N/A           3/ 4
MASS BAY-STELLWA 1104   42 41  130/  8/ 12 1020.0R  1 7/8  2/ 3
ISLE OF SHOALS   1100   42      90/  5/  5 1022.4R
S OF BLOCK IS    1130      44                N/A           9/ 7
$$

......................KEY.........................
  SKY/WX - SKY CONDITION/PRESENT WEATHER
  TMP    - TEMPERATURE IN FAHRENHEIT
  DWPT   - DEWPOINT IN FAHRENHEIT
  RH     - RELATIVE HUMIDITY IN PERCENT
  WIND   - DIRECTION AND SPEED IN MPH
  PRES   - MEAN SEA LEVEL PRESSURE IN INCHES OF HG
  WCI    - WIND CHILL INDEX
  VSB    - VISIBILITY IN MILES
  HX     - HEAT INDEX
  TC     - TEMPERATURE IN CELSIUS
  VRB    - VARIABLE WIND DIRECTION
  N/A    - NOT AVAILABLE
  
      

Other recent Regional Weather Roundups

Wed Apr 1, 4:05am

Wed Apr 1, 3:04am

Wed Apr 1, 2:04am

Wed Apr 1, 1:04am

Wed Apr 1, 12:04am

Tue Mar 31, 11:04pm

Tue Mar 31, 10:04pm

Tue Mar 31, 9:04pm

Tue Mar 31, 8:04pm

Tue Mar 31, 7:04pm

Tue Mar 31, 6:04pm

Tue Mar 31, 4:04pm

Tue Mar 31, 3:04pm

Tue Mar 31, 2:04pm

Tue Mar 31, 1:04pm

Tue Mar 31, 12:05pm

Tue Mar 31, 11:04am

Tue Mar 31, 10:05am

Tue Mar 31, 9:04am

Tue Mar 31, 8:04am

Tue Mar 31, 7:05am

Tue Mar 31, 6:04am

Tue Mar 31, 5:04am

Tue Mar 31, 4:04am

Tue Mar 31, 3:04am

Tue Mar 31, 2:04am

Tue Mar 31, 1:04am

Tue Mar 31, 12:04am

Mon Mar 30, 11:04pm

Mon Mar 30, 10:04pm

Mon Mar 30, 9:05pm

Mon Mar 30, 8:04pm

Mon Mar 30, 7:04pm

Mon Mar 30, 6:04pm

Mon Mar 30, 5:05pm

Mon Mar 30, 4:04pm

Mon Mar 30, 3:04pm

Mon Mar 30, 2:04pm

Mon Mar 30, 1:04pm

Mon Mar 30, 12:04pm

Mon Mar 30, 11:04am

Mon Mar 30, 10:04am

Mon Mar 30, 9:04am

Mon Mar 30, 8:04am

Mon Mar 30, 7:04am

Mon Mar 30, 6:04am

Mon Mar 30, 5:04am

Mon Mar 30, 4:04am

Mon Mar 30, 3:05am

Mon Mar 30, 2:04am

Mon Mar 30, 1:04am

Mon Mar 30, 12:04am

Sun Mar 29, 11:04pm

Sun Mar 29, 10:05pm

Sun Mar 29, 9:04pm

Sun Mar 29, 8:04pm

Sun Mar 29, 7:04pm

Sun Mar 29, 6:04pm

Sun Mar 29, 5:05pm

Sun Mar 29, 4:04pm

Sun Mar 29, 3:04pm

Sun Mar 29, 2:04pm

Sun Mar 29, 1:05pm

Sun Mar 29, 12:04pm

Sun Mar 29, 11:04am

Sun Mar 29, 10:04am

Sun Mar 29, 9:04am

Sun Mar 29, 7:04am

Sun Mar 29, 6:04am

Sun Mar 29, 5:04am

Meta data:

ID: 708679b9-572f-482b-8d6f-f5ec963f4eee
Link: https://api.weather.gov/products/708679b9-572f-482b-8d6f-f5ec963f4eee